When you browse on this site, cookies collect data to enhance your experience and personalize the content and advertising you see.
Visit our Privacy Policy to learn more. By continuing to use the site, you agree to this use of cookies and data.
  • In Germany
  • List of Countries
  • For 7 days
  • Water Temperature
  • Weather Map
  • Weather Widgets
  • user-avatar
    Login

    Hourly Weather Adelaide

    Today, 7 December, Saturday

    Time Temperature Precipitation Wind Pressure Humidity
    00:00 +12°C° 0 mm 2 mps 759 mmHg 86%
    01:00 +12°C° 0 mm 2 mps 759 mmHg 87%
    02:00 +10°C° 0 mm 2 mps 759 mmHg 87%
    03:00 +11°C° 0 mm 1 mps 758 mmHg 88%
    04:00 +12°C° 0 mm 1 mps 759 mmHg 83%
    05:00 +13°C° 0 mm 1 mps 759 mmHg 79%
    06:00 +14°C° 0 mm 1 mps 760 mmHg 74%
    07:00 +16°C° 0 mm 1 mps 760 mmHg 63%
    08:00 +20°C° 0 mm 1 mps 759 mmHg 52%
    09:00 +22°C° 0 mm 1 mps 759 mmHg 40%
    10:00 +24°C° 0 mm 2 mps 759 mmHg 39%
    11:00 +25°C° 0 mm 3 mps 759 mmHg 37%
    12:00 +26°C° 0 mm 3 mps 759 mmHg 35%
    13:00 +26°C° 0 mm 4 mps 758 mmHg 36%
    14:00 +26°C° 0 mm 4 mps 758 mmHg 38%
    15:00 +27°C° 0 mm 3 mps 757 mmHg 37%
    16:00 +26°C° 0 mm 4 mps 758 mmHg 41%
    17:00 +25°C° 0 mm 4 mps 758 mmHg 44%
    18:00 +22°C° 0 mm 4 mps 759 mmHg 48%
    19:00 +21°C° 0 mm 4 mps 759 mmHg 54%
    20:00 +19°C° 0 mm 3 mps 759 mmHg 60%
    21:00 +17°C° 0 mm 3 mps 759 mmHg 66%
    22:00 +17°C° 0 mm 3 mps 758 mmHg 63%
    23:00 +17°C° 0 mm 3 mps 758 mmHg 60%

    Tomorrow, 8 December, Sunday

    Time Temperature Precipitation Wind Pressure Humidity
    00:00 +17°C° 0 mm 3 mps 758 mmHg 57%
    01:00 +17°C° 0 mm 2 mps 757 mmHg 56%
    02:00 +17°C° 0 mm 2 mps 757 mmHg 55%
    03:00 +17°C° 0 mm 2 mps 756 mmHg 54%
    04:00 +19°C° 0 mm 3 mps 757 mmHg 49%
    05:00 +20°C° 0 mm 3 mps 757 mmHg 45%
    06:00 +21°C° 0 mm 3 mps 757 mmHg 40%
    07:00 +25°C° 0 mm 4 mps 757 mmHg 34%
    08:00 +28°C° 0 mm 4 mps 756 mmHg 27%
    09:00 +32°C° 0 mm 5 mps 756 mmHg 20%
    10:00 +33°C° 0 mm 4 mps 756 mmHg 19%
    11:00 +35°C° 0 mm 4 mps 756 mmHg 18%
    12:00 +36°C° 0 mm 3 mps 755 mmHg 16%
    13:00 +36°C° 0 mm 3 mps 755 mmHg 16%
    14:00 +36°C° 0 mm 2 mps 754 mmHg 17%
    15:00 +36°C° 0 mm 2 mps 754 mmHg 17%
    16:00 +35°C° 0 mm 2 mps 753 mmHg 17%
    17:00 +34°C° 0 mm 2 mps 753 mmHg 18%
    18:00 +33°C° 0 mm 3 mps 753 mmHg 18%
    19:00 +33°C° 0 mm 3 mps 753 mmHg 18%
    20:00 +32°C° 0 mm 4 mps 753 mmHg 17%
    21:00 +30°C° 0 mm 5 mps 753 mmHg 17%
    22:00 +30°C° 0 mm 5 mps 753 mmHg 17%
    23:00 +30°C° 0 mm 5 mps 752 mmHg 16%

    Day after tomorrow, 9 December, Monday

    Time Temperature Precipitation Wind Pressure Humidity
    00:00 +30°C° 0 mm 5 mps 752 mmHg 16%
    01:00 +30°C° 0 mm 5 mps 752 mmHg 16%
    02:00 +30°C° 0 mm 5 mps 752 mmHg 16%
    03:00 +30°C° 0 mm 6 mps 752 mmHg 17%
    04:00 +28°C° 0 mm 5 mps 753 mmHg 26%
    05:00 +27°C° 0 mm 4 mps 754 mmHg 35%
    06:00 +26°C° 0 mm 3 mps 755 mmHg 45%
    07:00 +26°C° 0 mm 3 mps 755 mmHg 43%
    08:00 +27°C° 0 mm 3 mps 756 mmHg 42%
    09:00 +28°C° 0 mm 2 mps 756 mmHg 41%
    10:00 +27°C° 0 mm 3 mps 757 mmHg 42%
    11:00 +27°C° 0 mm 3 mps 757 mmHg 42%
    12:00 +27°C° 0 mm 4 mps 757 mmHg 43%
    13:00 +27°C° 0 mm 4 mps 757 mmHg 46%
    14:00 +26°C° 0 mm 5 mps 757 mmHg 48%
    15:00 +26°C° 0 mm 5 mps 757 mmHg 51%
    16:00 +25°C° 0 mm 5 mps 757 mmHg 55%
    17:00 +22°C° 0 mm 6 mps 757 mmHg 58%
    18:00 +21°C° 0 mm 6 mps 758 mmHg 62%
    19:00 +20°C° 0 mm 5 mps 758 mmHg 67%
    20:00 +19°C° 0 mm 5 mps 759 mmHg 72%
    21:00 +17°C° 0 mm 4 mps 759 mmHg 76%
    22:00 +17°C° 0 mm 4 mps 759 mmHg 78%
    23:00 +15°C° 0 mm 4 mps 759 mmHg 79%

    10 December, Tuesday

    Time Temperature Precipitation Wind Pressure Humidity
    00:00 +15°C° 0 mm 4 mps 759 mmHg 81%
    01:00 +14°C° 0 mm 4 mps 759 mmHg 81%
    02:00 +14°C° 0 mm 4 mps 759 mmHg 81%
    03:00 +14°C° 0 mm 4 mps 759 mmHg 82%
    04:00 +14°C° 0 mm 4 mps 759 mmHg 79%
    05:00 +15°C° 0 mm 4 mps 760 mmHg 76%
    06:00 +15°C° 0 mm 4 mps 760 mmHg 74%
    07:00 +17°C° 0 mm 4 mps 760 mmHg 67%
    08:00 +19°C° 0 mm 4 mps 760 mmHg 61%
    09:00 +20°C° 0 mm 4 mps 761 mmHg 55%
    10:00 +21°C° 0 mm 5 mps 760 mmHg 50%
    11:00 +22°C° 0 mm 5 mps 760 mmHg 46%
    12:00 +24°C° 0 mm 6 mps 759 mmHg 41%
    13:00 +24°C° 0 mm 6 mps 759 mmHg 40%
    14:00 +23°C° 0 mm 6 mps 759 mmHg 40%
    15:00 +23°C° 0 mm 7 mps 758 mmHg 39%
    16:00 +22°C° 0 mm 7 mps 758 mmHg 42%
    17:00 +20°C° 0 mm 6 mps 759 mmHg 45%
    18:00 +17°C° 0 mm 6 mps 759 mmHg 49%
    19:00 +16°C° 0 mm 6 mps 759 mmHg 56%
    20:00 +15°C° 0 mm 6 mps 760 mmHg 64%
    21:00 +13°C° 0 mm 5 mps 760 mmHg 72%
    22:00 +13°C° 0 mm 5 mps 760 mmHg 74%
    23:00 +13°C° 0 mm 5 mps 760 mmHg 75%

    11 December, Wednesday

    Time Temperature Precipitation Wind Pressure Humidity
    00:00 +13°C° 0 mm 5 mps 759 mmHg 77%
    01:00 +13°C° 0 mm 4 mps 759 mmHg 78%
    02:00 +12°C° 0 mm 4 mps 759 mmHg 79%
    03:00 +12°C° 0 mm 4 mps 759 mmHg 81%
    04:00 +13°C° 0 mm 4 mps 759 mmHg 77%
    05:00 +13°C° 0 mm 4 mps 759 mmHg 74%
    06:00 +13°C° 0 mm 4 mps 760 mmHg 71%
    07:00 +15°C° 0 mm 4 mps 760 mmHg 62%
    08:00 +18°C° 0 mm 4 mps 760 mmHg 53%
    09:00 +20°C° 0 mm 4 mps 760 mmHg 44%
    10:00 +22°C° 0 mm 4 mps 759 mmHg 42%
    11:00 +23°C° 0 mm 5 mps 759 mmHg 40%
    12:00 +25°C° 0 mm 5 mps 759 mmHg 38%
    13:00 +24°C° 0 mm 6 mps 758 mmHg 39%
    14:00 +24°C° 0 mm 6 mps 758 mmHg 40%
    15:00 +24°C° 0 mm 6 mps 758 mmHg 41%
    16:00 +22°C° 0 mm 6 mps 758 mmHg 45%
    17:00 +21°C° 0 mm 6 mps 758 mmHg 49%
    18:00 +20°C° 0 mm 6 mps 759 mmHg 54%
    19:00 +17°C° 0 mm 5 mps 759 mmHg 60%
    20:00 +16°C° 0 mm 5 mps 759 mmHg 66%
    21:00 +14°C° 0 mm 5 mps 760 mmHg 72%
    22:00 +14°C° 0 mm 5 mps 759 mmHg 76%
    23:00 +14°C° 0 mm 5 mps 759 mmHg 80%

    12 December, Thursday

    Time Temperature Precipitation Wind Pressure Humidity
    00:00 +14°C° 0 mm 4 mps 759 mmHg 84%
    01:00 +14°C° 0 mm 4 mps 759 mmHg 85%
    02:00 +14°C° 0 mm 4 mps 759 mmHg 86%
    03:00 +14°C° 0 mm 4 mps 759 mmHg 86%
    04:00 +14°C° 0 mm 4 mps 759 mmHg 82%
    05:00 +15°C° 0 mm 4 mps 760 mmHg 78%
    06:00 +17°C° 0 mm 4 mps 760 mmHg 74%
    07:00 +18°C° 0 mm 4 mps 760 mmHg 65%
    08:00 +19°C° 0 mm 4 mps 760 mmHg 57%
    09:00 +20°C° 0 mm 4 mps 761 mmHg 49%
    10:00 +20°C° 0 mm 5 mps 761 mmHg 46%
    11:00 +21°C° 0 mm 6 mps 760 mmHg 44%
    12:00 +21°C° 0 mm 7 mps 760 mmHg 42%
    13:00 +21°C° 0 mm 7 mps 760 mmHg 44%
    14:00 +21°C° 0 mm 7 mps 760 mmHg 47%
    15:00 +21°C° 0 mm 7 mps 760 mmHg 49%
    16:00 +18°C° 0 mm 7 mps 760 mmHg 52%
    17:00 +17°C° 0 mm 7 mps 761 mmHg 56%
    18:00 +16°C° 0 mm 7 mps 761 mmHg 59%
    19:00 +15°C° 0 mm 6 mps 762 mmHg 65%
    20:00 +14°C° 0 mm 6 mps 762 mmHg 70%
    21:00 +12°C° 0 mm 5 mps 763 mmHg 76%
    22:00 +12°C° 0 mm 5 mps 763 mmHg 75%
    23:00 +11°C° 0 mm 4 mps 762 mmHg 75%
    Show more